Погода Корнесты

Погода Корнесты : погода сейчас, прогноз погоды и архив. Всё, что Вы хотите узнать о погоде Корнесты!

Поиск расширенной информации на нашем сайте:

Полезная информация: Натуральный шампунь с имбирем дешево у китайцев!

Другие новости

Новости СМИ2

Главная страница сайта

Новости сайта

03.07.2017

Напоминаем, что на нашем специализированном сайте Метеоцентр.Азия вы можете получить высокодетализированные автоматические прогнозы погоды по пунктам России, СНГ и мира в авиационном формате (включающие направление и скорость ветра, видимость, явления погоды, количество и форму облачности, нижнюю и верхнюю границу облачности).

Рекомендуем: Натуральная косметика Пулана по низким ценам в Украине!

Погода Корнесты - сегодня

Время (UTC), дата Ветер
(°,м/с) 
Видим.   Явления Облачность Т
(°С)
Тd
(°С)
f(%) Тe
(°С)
Pmin
(гПа)
dP
(гПа)
Po
(мм)
O2
(г/м3)
Тmin Tmax R s Состояние
почвы
03 18.09.17 210 (ЮЗ) 10 км  {ливн. осадки}  8/5 600 м верхняя 
[Sc|Cs]
+19.9 +11.1 57 +24  1010.7  0.4  738  275           
06 18.09.17 300 (СЗ) 10 км  {ливн. осадки}  8/5 600 м средняя 
[Sc|Ac trans]
+19.8 +11.8 60 +25  1012.5  1.7  739  275  +19.8    0.4     
09 18.09.17 320 (СЗ) 10 км    9/6 600 м средняя 
[Sc|Ac trans]
+23.4 +7.1 35 +23  1013.3  1.1  740  273           
12 18.09.17 320 (СЗ) 10 км    4/0 средняя 
[Ac trans]
+25.7 +2.4 22 +26  1012.8  -0.3  740  272           
15 18.09.17 010 (С) 10 км    4/0 верхняя 
[Ci]
+24.3 +3.6 26 +24  1012.8  -0.1  740  273           
18 18.09.17 060 (СВ) 10 км    3/0 верхняя 
[Cs]
+19 +5.1 40 +19  1014.8  1.4  741  278    +26.6       
21 18.09.17 070 (В) 10 км    6/3 600 м верхняя 
[Sc|Cs]
+17.4 +5 44 +18  1015.7  0.8  741  280           
00 19.09.17 080 (В) 10 км    8/6 600 м верхняя 
[Sc|Ci fib]
+15.9 +5.8 51 +16  1016.7  0.8  742  282           
03 19.09.17 100 (В) 10 км    5/4 600 м верхняя 
[Sc|Ci fib]
+15 +5.2 52 +15  1017.1  0.3  742  283           
06 19.09.17 110 (В) 10 км    9/9 330 м 
[Sc]
+15.4 +5 50 +15  1017.7  0.6  743  282  +14.6         
09 19.09.17 090 (В) 10 км    9/6 600 м средняя 
[Sc|Ac trans]
+18.4 +5.9 44 +19  1016.9  -0.5  742  279           
12 19.09.17 050 (СВ) 10 км    8/4 600 м средняя 
[Cu Sc|Ac trans]
+20.9 +6.5 39 +21  1016.1  -0.5  742  277           
15 19.09.17 050 (СВ) 10 км  {гроза, ливн. осадки}  9/5 600 м кучево-дожд., средняя, верхняя 
[Cb calv|Ac trans|Cs]
+16.9 +9.6 62 +18  1013.8  -2.6  740  279           
18 19.09.17 070 (В) 10 км  {гроза, ливн. осадки}  ясно 
+17.5 +6.4 48 +18  1013.7  -0.1  740  279    +22     
21 19.09.17 080 (В) 10 км    ясно 
+16.4 +6.2 51 +17  1013  -0.7  739  280           
00 20.09.17 080 (В) 10 км    ясно 
+16.3 +5 47 +17  1012.2  -0.8  739  280           
03 20.09.17 090 (В) 10 км    10/0 средняя 
[Ac As]
+15.2 +5.7 53 +17  1010.9  -1.4  738  281           
06 20.09.17 110 (В) 10 км    1/1 330 м средняя 
[Ac trans]
+17.6 +6.2 47 +18  1010.7  738  278  +14.6         
09 20.09.17 230 (ЮЗ) 10 км    4/0 средняя 
[Ac trans]
+23.3 +7.8 37 +23  1009.8  -0.3  737  272           
12 20.09.17 150 (ЮВ) 10 км  гроза без осадков  10/10 600 м кучево-дожд. 
[Cb calv]
+19.4 +8.7 50 +21  1010.2  737  276           
15 20.09.17 тихо ()   10 км  {гроза, ливн. осадки}  4/3 600 м средняя 
[Sc|Ac trans]
+21.3 +11.1 52 +24  1008  -1.9  736  273           
18 20.09.17 240 (ЮЗ) 10 км  {гроза, ливн. осадки}  3/3 600 м 
[Sc]
+15.9 +13.2 84 +23  1007.6  -0.9  735  277    +2.4  0.6     
21 20.09.17 270 (З) 5{14}  10 км    3/3 600 м 
[Sc]
+16.5 +13.6 83 +23  1009.6  737  277           
00 21.09.17 110 (В) 2{13}  10 км  зарница  4/3 600 м средняя 
[Sc|Ac trans]
+15.2 +13.7 91 +23  1007  -2.6  735  278           
03 21.09.17 090 (В) 10 км    10/6 600 м кучево-дожд., средняя 
[Cb calv|As op]
+16.2 +13.7 85 +24  1006.3  -0.6  734  277           
Время (UTC), дата Ветер
(°,м/с) 
Видим.   Явления Облачность Т
(°С)
Тd
(°С)
f(%) Тe
(°С)
Pmin
(гПа)
dP
(гПа)
Po
(мм)
O2
(г/м3)
Тmin Tmax R s Состояние
почвы

Для получения пояснительной информации подведите курсор к названию столбца.

ПОГОДА Корнесты - архив

Всё, что Вы хотите узнать о погоде Корнесты - удобно и подробно!

Выберите нужную дату (начиная с 1 января 2015* года) и нажмите кнопку "Найти".
Будут отображены архивные сводки погоды по пункту Корнесты, начиная с указанной даты.


Отображать данные в формате CSV (для использования в таблицах Excel)


Внимание! Наш архив погоды предназначен исключительно для личного некоммерческого использования в познавательных целях. Если Вам необходимы официальные справки о состоянии погоды (для производственных, юридических, коммерческих и т.п. целей), обращайтесь в органы Росгидромета.

*Примечание: данная дата относится к архиву по метеостанциям СССР (Россия, СНГ, Балтия).
Архив по метеостанциям Зарубежной Европы и Азии (кроме Китая) хранится 10 дней, по другим регионам земного шара (Китай, Африка, Америка, Австралия, Океания) - 1 день.

Корнесты - район местоположения метеостанции


Название, широта, долгота, высота метеостанции:
Корнесты 47.3°ш. 28.1°д. 232 м над ур. моря [Молдавия]

Дополнительная информация

В oтличие oт бoльшинства пoгoдных сайтoв мы публикуем пoдрoбную метеoинфoрмацию в детальнoм прoфессиoнальнoм фoрмате.

Характеристики температуры и влажнoсти вoздуха измеряются на высoте 2 м в тени вдали oт зданий и деревьев.
Скoрoсть ветра измеряется на высoте 10 м (на урoвне рoста челoвека скoрoсть ветра ниже в 1.5-2 раза). Если метеoстанция нахoдится в гoрoде или в лесу, тo скoрoсть ветра занижена на 2-4 м/с пo сравнению с oткрытым местoм. Скoрoсть ветра над акватoриями крупных рек и oзёр, а также на вершинах хoлмoв на 2-5 м/с выше, чем в oбычных услoвиях.
Атмoсфернoе давление в разных тoчках местнoсти мoжет значительнo oтличаться oт давления на метеoстанции, в зависимoсти oт услoвий рельефа (при пoдъёме на 10 м давление пoнижается примернo на 1 мм рт.ст.).